,,PA_Meas_PMT16A,,PR_Meas_QMR101_102,,RH_Meas_QMH101,,SR_Meas_QMS101,,TA_Meas_QMH101,,GenWind,,GenWind,
time,status,PA,status,PR,status,RH,status,SR,status,TA,status,DirAvg,status,SpdAvg,
2014-10-25, 00:00:04,VALID,918.707,VALID,0,VALID,97.534,VALID,0,VALID,18.8658,VALID,6,VALID,0,
2014-10-25, 00:01:04,VALID,918.709,VALID,0,VALID,97.534,VALID,0,VALID,18.8268,VALID,7,VALID,0,
2014-10-25, 00:02:04,VALID,918.712,VALID,0,VALID,97.534,VALID,0,VALID,18.7878,VALID,7,VALID,0,
2014-10-25, 00:03:04,VALID,918.753,VALID,0,VALID,97.534,VALID,0,VALID,18.7279,VALID,7,VALID,0,
2014-10-25, 00:04:04,VALID,918.695,VALID,0,VALID,97.5264,VALID,0,VALID,18.6903,VALID,7,VALID,0,
2014-10-25, 00:05:04,VALID,918.718,VALID,0,VALID,97.5492,VALID,0,VALID,18.6513,VALID,7,VALID,0,
2014-10-25, 00:06:04,VALID,918.703,VALID,0,VALID,97.5264,VALID,0,VALID,18.6513,VALID,13,VALID,0,
2014-10-25, 00:07:04,VALID,918.716,VALID,0,VALID,97.5187,VALID,0,VALID,18.6708,VALID,28,VALID,0,
2014-10-25, 00:08:04,VALID,918.682,VALID,0,VALID,97.5187,VALID,0,VALID,18.6319,VALID,29,VALID,0,
2014-10-25, 00:09:04,VALID,918.691,VALID,0,VALID,97.5416,VALID,0,VALID,18.6513,VALID,29,VALID,0,
2014-10-25, 00:10:04,VALID,918.707,VALID,0,VALID,97.534,VALID,0,VALID,18.6109,VALID,29,VALID,0,
2014-10-25, 00:11:04,VALID,918.714,VALID,0,VALID,97.534,VALID,0,VALID,18.6513,VALID,29,VALID,0,
2014-10-25, 00:12:04,VALID,918.714,VALID,0,VALID,97.5492,VALID,0,VALID,18.6319,VALID,30,VALID,0,
2014-10-25, 00:13:04,VALID,918.728,VALID,0,VALID,97.5569,VALID,0,VALID,18.6513,VALID,42,VALID,0,
2014-10-25, 00:14:04,VALID,918.727,VALID,0,VALID,97.5416,VALID,0,VALID,18.7098,VALID,42,VALID,0,
2014-10-25, 00:15:04,VALID,918.755,VALID,0,VALID,97.534,VALID,0,VALID,18.7683,VALID,42,VALID,0,
2014-10-25, 00:16:04,VALID,918.772,VALID,0,VALID,97.5492,VALID,0,VALID,18.8073,VALID,41,VALID,0,
2014-10-25, 00:17:04,VALID,918.757,VALID,0,VALID,97.534,VALID,0,VALID,18.8853,VALID,42,VALID,0,
2014-10-25, 00:18:04,VALID,918.754,VALID,0,VALID,97.5035,VALID,0,VALID,18.9243,VALID,42,VALID,0,
2014-10-25, 00:19:04,VALID,918.726,VALID,0,VALID,97.4882,VALID,0,VALID,18.8839,VALID,42,VALID,0,
2014-10-25, 00:20:05,VALID,918.712,VALID,0,VALID,97.4273,VALID,0,VALID,18.8268,VALID,118,VALID,0.752734,
2014-10-25, 00:21:04,VALID,918.676,VALID,0,VALID,97.3586,VALID,0,VALID,18.8073,VALID,121,VALID,0,
2014-10-25, 00:22:04,VALID,918.666,VALID,0,VALID,97.3358,VALID,0,VALID,18.7683,VALID,121,VALID,0,
2014-10-25, 00:23:05,VALID,918.647,VALID,0,VALID,97.3053,VALID,0,VALID,18.7683,VALID,121,VALID,0,
2014-10-25, 00:24:05,VALID,918.633,VALID,0,VALID,97.2748,VALID,0,VALID,18.7488,VALID,121,VALID,0,
2014-10-25, 00:25:05,VALID,918.614,VALID,0,VALID,97.2824,VALID,0,VALID,18.7488,VALID,121,VALID,0,
2014-10-25, 00:26:05,VALID,918.656,VALID,0,VALID,97.2824,VALID,0,VALID,18.7683,VALID,121,VALID,0,
2014-10-25, 00:27:05,VALID,918.649,VALID,0,VALID,97.2519,VALID,0,VALID,18.7293,VALID,121,VALID,0,
2014-10-25, 00:28:05,VALID,918.686,VALID,0,VALID,97.1986,VALID,0,VALID,18.6513,VALID,121,VALID,0,
2014-10-25, 00:29:05,VALID,918.647,VALID,0,VALID,97.1071,VALID,0,VALID,18.572,VALID,121,VALID,0,
2014-10-25, 00:30:05,VALID,918.657,VALID,0,VALID,97.0613,VALID,0,VALID,18.5539,VALID,121,VALID,0,
2014-10-25, 00:31:05,VALID,918.668,VALID,0,VALID,97.0308,VALID,0,VALID,18.5344,VALID,121,VALID,0,
2014-10-25, 00:32:05,VALID,918.651,VALID,0,VALID,97.0308,VALID,0,VALID,18.494,VALID,121,VALID,0,
2014-10-25, 00:33:05,VALID,918.629,VALID,0,VALID,97.0308,VALID,0,VALID,18.4745,VALID,121,VALID,0,
2014-10-25, 00:34:05,VALID,918.619,VALID,0,VALID,97.0308,VALID,0,VALID,18.4954,VALID,121,VALID,0,
2014-10-25, 00:35:05,VALID,918.633,VALID,0,VALID,97.0385,VALID,0,VALID,18.4759,VALID,121,VALID,0,
2014-10-25, 00:36:05,VALID,918.652,VALID,0,VALID,97.0461,VALID,0,VALID,18.4759,VALID,121,VALID,0,
2014-10-25, 00:37:05,VALID,918.639,VALID,0,VALID,97.0842,VALID,0,VALID,18.4759,VALID,121,VALID,0,
2014-10-25, 00:38:05,VALID,918.643,VALID,0,VALID,97.0918,VALID,0,VALID,18.4954,VALID,121,VALID,0,
2014-10-25, 00:39:05,VALID,918.638,VALID,0,VALID,97.1223,VALID,0,VALID,18.5344,VALID,121,VALID,0,
2014-10-25, 00:40:05,VALID,918.595,VALID,0,VALID,97.1986,VALID,0,VALID,18.5734,VALID,121,VALID,0,
2014-10-25, 00:41:05,VALID,918.571,VALID,0,VALID,97.1986,VALID,0,VALID,18.572,VALID,121,VALID,0,
2014-10-25, 00:42:05,VALID,918.515,VALID,0,VALID,97.2214,VALID,0,VALID,18.6513,VALID,121,VALID,0,
2014-10-25, 00:43:05,VALID,918.49,VALID,0,VALID,97.1833,VALID,0,VALID,18.5539,VALID,121,VALID,0,
2014-10-25, 00:44:05,VALID,918.458,VALID,0,VALID,97.1071,VALID,0,VALID,18.5344,VALID,121,VALID,0,
2014-10-25, 00:45:05,VALID,918.427,VALID,0,VALID,97.0842,VALID,0,VALID,18.4954,VALID,121,VALID,0,
2014-10-25, 00:46:05,VALID,918.434,VALID,0,VALID,97.0613,VALID,0,VALID,18.5149,VALID,121,VALID,0,
2014-10-25, 00:47:05,VALID,918.443,VALID,0,VALID,97.0766,VALID,0,VALID,18.5149,VALID,121,VALID,0,
2014-10-25, 00:48:05,VALID,918.448,VALID,0,VALID,97.0537,VALID,0,VALID,18.4954,VALID,94,VALID,0,
2014-10-25, 00:49:05,VALID,918.405,VALID,0,VALID,97.0461,VALID,0,VALID,18.4954,VALID,94,VALID,0,
2014-10-25, 00:50:05,VALID,918.419,VALID,0,VALID,97.0537,VALID,0,VALID,18.4369,VALID,82,VALID,0,
2014-10-25, 00:51:05,VALID,918.395,VALID,0,VALID,97.0308,VALID,0,VALID,18.4369,VALID,78,VALID,0,
2014-10-25, 00:52:05,VALID,918.392,VALID,0,VALID,97.0537,VALID,0,VALID,18.4369,VALID,78,VALID,0,
2014-10-25, 00:53:05,VALID,918.375,VALID,0,VALID,97.0613,VALID,0,VALID,18.4174,VALID,78,VALID,0,
2014-10-25, 00:54:05,VALID,918.388,VALID,0,VALID,97.069,VALID,0,VALID,18.4174,VALID,78,VALID,0,
2014-10-25, 00:55:05,VALID,918.383,VALID,0,VALID,97.1223,VALID,0,VALID,18.4954,VALID,78,VALID,0,
2014-10-25, 00:56:05,VALID,918.362,VALID,0,VALID,97.1833,VALID,0,VALID,18.5539,VALID,78,VALID,0,
2014-10-25, 00:57:05,VALID,918.372,VALID,0,VALID,97.1681,VALID,0.107441,VALID,18.5539,VALID,78,VALID,0,
2014-10-25, 00:58:05,VALID,918.372,VALID,0,VALID,97.1376,VALID,0,VALID,18.5135,VALID,78,VALID,0,
2014-10-25, 00:59:05,VALID,918.372,VALID,0,VALID,97.1376,VALID,0,VALID,18.5344,VALID,78,VALID,0,
2014-10-25, 01:00:05,VALID,918.396,VALID,0,VALID,97.1223,VALID,0,VALID,18.5344,VALID,78,VALID,0,
2014-10-25, 01:01:05,VALID,918.379,VALID,0,VALID,97.0766,VALID,0,VALID,18.4954,VALID,78,VALID,0,
2014-10-25, 01:02:05,VALID,918.408,VALID,0,VALID,97.0308,VALID,0,VALID,18.4954,VALID,78,VALID,0,
2014-10-25, 01:03:05,VALID,918.385,VALID,0,VALID,97.0613,VALID,0,VALID,18.494,VALID,78,VALID,0,
2014-10-25, 01:04:05,VALID,918.382,VALID,0,VALID,97.0613,VALID,0,VALID,18.5539,VALID,78,VALID,0,
2014-10-25, 01:05:05,VALID,918.425,VALID,0,VALID,97.069,VALID,0,VALID,18.5525,VALID,78,VALID,0,
2014-10-25, 01:06:05,VALID,918.433,VALID,0,VALID,97.0613,VALID,0.107441,VALID,18.5929,VALID,78,VALID,0,
2014-10-25, 01:07:05,VALID,918.444,VALID,0,VALID,97.0613,VALID,0,VALID,18.5539,VALID,78,VALID,0,
2014-10-25, 01:08:05,VALID,918.468,VALID,0,VALID,97.0232,VALID,0,VALID,18.494,VALID,79,VALID,0,
2014-10-25, 01:09:05,VALID,918.49,VALID,0,VALID,96.9775,VALID,0,VALID,18.3965,VALID,119,VALID,0,
2014-10-25, 01:10:05,VALID,918.463,VALID,0,VALID,96.9241,VALID,0,VALID,18.3575,VALID,119,VALID,0,
2014-10-25, 01:11:05,VALID,918.469,VALID,0,VALID,96.947,VALID,0,VALID,18.3784,VALID,119,VALID,0,
2014-10-25, 01:12:05,VALID,918.455,VALID,0,VALID,96.9851,VALID,0,VALID,18.4369,VALID,119,VALID,0,
2014-10-25, 01:13:05,VALID,918.424,VALID,0,VALID,97.0385,VALID,0,VALID,18.4759,VALID,119,VALID,0,
2014-10-25, 01:14:05,VALID,918.452,VALID,0,VALID,97.1147,VALID,0.107441,VALID,18.4745,VALID,119,VALID,0,
2014-10-25, 01:15:05,VALID,918.405,VALID,0,VALID,97.1452,VALID,0,VALID,18.4745,VALID,119,VALID,0,
2014-10-25, 01:16:05,VALID,918.428,VALID,0,VALID,97.1604,VALID,0,VALID,18.4759,VALID,119,VALID,0,
2014-10-25, 01:17:05,VALID,918.419,VALID,0,VALID,97.1757,VALID,0,VALID,18.455,VALID,119,VALID,0,
2014-10-25, 01:18:05,VALID,918.416,VALID,0,VALID,97.1986,VALID,0,VALID,18.4759,VALID,119,VALID,0,
2014-10-25, 01:19:05,VALID,918.446,VALID,0,VALID,97.1909,VALID,0,VALID,18.4564,VALID,119,VALID,0,
2014-10-25, 01:20:05,VALID,918.427,VALID,0,VALID,97.2214,VALID,0,VALID,18.4564,VALID,119,VALID,0,
2014-10-25, 01:21:05,VALID,918.451,VALID,0,VALID,97.2367,VALID,0,VALID,18.4369,VALID,119,VALID,0,
2014-10-25, 01:22:05,VALID,918.463,VALID,0,VALID,97.2443,VALID,0,VALID,18.3965,VALID,119,VALID,0,
2014-10-25, 01:23:05,VALID,918.5,VALID,0,VALID,97.2519,VALID,0,VALID,18.3979,VALID,119,VALID,0,
2014-10-25, 01:24:05,VALID,918.494,VALID,0,VALID,97.2519,VALID,0,VALID,18.4174,VALID,119,VALID,0,
2014-10-25, 01:25:05,VALID,918.505,VALID,0,VALID,97.2748,VALID,0,VALID,18.4773,VALID,119,VALID,0,
2014-10-25, 01:26:05,VALID,918.471,VALID,0,VALID,97.3053,VALID,0,VALID,18.4759,VALID,119,VALID,0,
2014-10-25, 01:27:05,VALID,918.459,VALID,0,VALID,97.3281,VALID,0,VALID,18.4759,VALID,119,VALID,0,
2014-10-25, 01:28:05,VALID,918.432,VALID,0,VALID,97.3434,VALID,0,VALID,18.4369,VALID,119,VALID,0,
2014-10-25, 01:29:05,VALID,918.433,VALID,0,VALID,97.3434,VALID,0,VALID,18.4383,VALID,119,VALID,0,
2014-10-25, 01:30:05,VALID,918.419,VALID,0,VALID,97.3434,VALID,0,VALID,18.3979,VALID,119,VALID,0.137891,
2014-10-25, 01:31:05,VALID,918.446,VALID,0,VALID,97.351,VALID,0,VALID,18.3798,VALID,119,VALID,0,
2014-10-25, 01:32:05,VALID,918.456,VALID,0,VALID,97.3586,VALID,0,VALID,18.3798,VALID,120,VALID,0,
2014-10-25, 01:33:05,VALID,918.447,VALID,0,VALID,97.3739,VALID,0,VALID,18.3798,VALID,120,VALID,0.957812,
2014-10-25, 01:34:05,VALID,918.492,VALID,0,VALID,97.3815,VALID,0,VALID,18.3993,VALID,120,VALID,0.995313,
2014-10-25, 01:35:05,VALID,918.476,VALID,0,VALID,97.3891,VALID,0,VALID,18.3993,VALID,120,VALID,0.466016,
2014-10-25, 01:36:05,VALID,918.461,VALID,0,VALID,97.4044,VALID,0,VALID,18.4188,VALID,119,VALID,0,
2014-10-25, 01:37:05,VALID,918.452,VALID,0,VALID,97.4425,VALID,0,VALID,18.3993,VALID,100,VALID,0.794141,
2014-10-25, 01:38:05,VALID,918.382,VALID,0,VALID,97.4577,VALID,0,VALID,18.3589,VALID,100,VALID,0.934766,
2014-10-25, 01:39:05,VALID,918.405,VALID,0,VALID,97.4577,VALID,0.107441,VALID,18.3185,VALID,101,VALID,0.329297,
2014-10-25, 01:40:05,VALID,918.396,VALID,0,VALID,97.4349,VALID,0,VALID,18.3004,VALID,102,VALID,0.535937,
2014-10-25, 01:41:05,VALID,918.375,VALID,0,VALID,97.4425,VALID,0.107441,VALID,18.2796,VALID,101,VALID,0.394531,
2014-10-25, 01:42:05,VALID,918.34,VALID,0,VALID,97.4577,VALID,0,VALID,18.2601,VALID,117,VALID,0.635938,
2014-10-25, 01:43:05,VALID,918.324,VALID,0,VALID,97.4806,VALID,0,VALID,18.3589,VALID,120,VALID,0.364062,
2014-10-25, 01:44:05,VALID,918.229,VALID,0,VALID,97.5035,VALID,0,VALID,18.338,VALID,120,VALID,0.625391,
2014-10-25, 01:45:05,VALID,918.197,VALID,0,VALID,97.5187,VALID,0,VALID,18.3784,VALID,131,VALID,0.887109,
2014-10-25, 01:46:05,VALID,918.146,VALID,0,VALID,97.5645,VALID,0,VALID,18.4564,VALID,141,VALID,0.769922,
2014-10-25, 01:47:05,VALID,918.119,VALID,0,VALID,97.5569,VALID,0,VALID,18.4564,VALID,134,VALID,0.138281,
2014-10-25, 01:48:05,VALID,918.133,VALID,0,VALID,97.5645,VALID,0,VALID,18.4355,VALID,123,VALID,0.375391,
2014-10-25, 01:49:05,VALID,918.095,VALID,0,VALID,97.5721,VALID,0,VALID,18.3965,VALID,123,VALID,0,
2014-10-25, 01:50:05,VALID,918.085,VALID,0,VALID,97.595,VALID,0.107441,VALID,18.3575,VALID,111,VALID,0,
2014-10-25, 01:51:05,VALID,918.085,VALID,0,VALID,97.5873,VALID,0.107441,VALID,18.3589,VALID,92,VALID,0.305078,
2014-10-25, 01:52:05,VALID,918.046,VALID,0,VALID,97.5873,VALID,0,VALID,18.4174,VALID,97,VALID,0.949609,
2014-10-25, 01:53:05,VALID,918.013,VALID,0,VALID,97.5873,VALID,0,VALID,18.4369,VALID,95,VALID,0.634766,
2014-10-25, 01:54:05,VALID,918.031,VALID,0,VALID,97.595,VALID,0,VALID,18.4759,VALID,90,VALID,0.827344,
2014-10-25, 01:55:05,VALID,917.985,VALID,0,VALID,97.6026,VALID,0,VALID,18.494,VALID,89,VALID,0.930859,
2014-10-25, 01:56:05,VALID,917.948,VALID,0,VALID,97.6331,VALID,0.107441,VALID,18.5914,VALID,98,VALID,1.02891,
2014-10-25, 01:57:05,VALID,917.938,VALID,0,VALID,97.6178,VALID,0,VALID,18.6319,VALID,82,VALID,1.16367,
2014-10-25, 01:58:05,VALID,917.903,VALID,0,VALID,97.595,VALID,0.107441,VALID,18.6304,VALID,82,VALID,0.884375,
2014-10-25, 01:59:05,VALID,917.863,VALID,0,VALID,97.6407,VALID,0,VALID,18.6304,VALID,82,VALID,0.598047,
2014-10-25, 02:00:05,VALID,917.875,VALID,0,VALID,97.6407,VALID,0.107441,VALID,18.6513,VALID,82,VALID,0.686719,
2014-10-25, 02:01:05,VALID,917.867,VALID,0,VALID,97.6178,VALID,0.107441,VALID,18.6109,VALID,82,VALID,0.887891,
2014-10-25, 02:02:05,VALID,917.818,VALID,0,VALID,97.6255,VALID,0,VALID,18.6499,VALID,82,VALID,0,
2014-10-25, 02:03:05,VALID,917.834,VALID,0,VALID,97.6178,VALID,0.107441,VALID,18.6499,VALID,82,VALID,0,
2014-10-25, 02:04:05,VALID,917.798,VALID,0,VALID,97.6407,VALID,0,VALID,18.6499,VALID,82,VALID,0,
2014-10-25, 02:05:05,VALID,917.77,VALID,0,VALID,97.6102,VALID,0.107441,VALID,18.6694,VALID,82,VALID,0,
2014-10-25, 02:06:05,VALID,917.732,VALID,0,VALID,97.6331,VALID,0,VALID,18.6903,VALID,82,VALID,0,
2014-10-25, 02:07:05,VALID,917.721,VALID,0,VALID,97.6102,VALID,0,VALID,18.6708,VALID,82,VALID,0.340625,
2014-10-25, 02:08:05,VALID,917.693,VALID,0,VALID,97.6178,VALID,0,VALID,18.6708,VALID,82,VALID,0,
2014-10-25, 02:09:05,VALID,917.658,VALID,0,VALID,97.6102,VALID,0.107441,VALID,18.6513,VALID,82,VALID,0,
2014-10-25, 02:10:05,VALID,917.674,VALID,0,VALID,97.6331,VALID,0,VALID,18.6319,VALID,82,VALID,0,
2014-10-25, 02:11:05,VALID,917.63,VALID,0,VALID,97.6255,VALID,0,VALID,18.6124,VALID,82,VALID,0,
2014-10-25, 02:12:05,VALID,917.637,VALID,0,VALID,97.5873,VALID,0,VALID,18.5734,VALID,82,VALID,0,
2014-10-25, 02:13:05,VALID,917.617,VALID,0,VALID,97.6026,VALID,0.107441,VALID,18.5734,VALID,82,VALID,0,
2014-10-25, 02:14:05,VALID,917.598,VALID,0,VALID,97.6026,VALID,0,VALID,18.5734,VALID,82,VALID,0,
2014-10-25, 02:15:05,VALID,917.53,VALID,0,VALID,97.595,VALID,0,VALID,18.5539,VALID,82,VALID,0,
2014-10-25, 02:16:05,VALID,917.535,VALID,0,VALID,97.6026,VALID,0,VALID,18.5344,VALID,82,VALID,0,
2014-10-25, 02:17:05,VALID,917.5,VALID,0,VALID,97.6178,VALID,0,VALID,18.5539,VALID,77,VALID,0,
2014-10-25, 02:18:05,VALID,917.476,VALID,0,VALID,97.6102,VALID,0,VALID,18.533,VALID,77,VALID,0,
2014-10-25, 02:19:05,VALID,917.513,VALID,0,VALID,97.6026,VALID,0,VALID,18.533,VALID,77,VALID,0,
2014-10-25, 02:20:05,VALID,917.5,VALID,0,VALID,97.6255,VALID,0,VALID,18.4759,VALID,77,VALID,0,
2014-10-25, 02:21:05,VALID,917.506,VALID,0,VALID,97.6178,VALID,0,VALID,18.4564,VALID,78,VALID,0,
2014-10-25, 02:22:05,VALID,917.486,VALID,0,VALID,97.6178,VALID,0,VALID,18.4564,VALID,110,VALID,0,
2014-10-25, 02:23:05,VALID,917.456,VALID,0,VALID,97.6102,VALID,0,VALID,18.4369,VALID,110,VALID,0,
2014-10-25, 02:24:05,VALID,917.401,VALID,0,VALID,97.6331,VALID,0,VALID,18.3394,VALID,110,VALID,0,
2014-10-25, 02:25:05,VALID,917.397,VALID,0,VALID,97.6255,VALID,0,VALID,18.2809,VALID,110,VALID,0,
2014-10-25, 02:26:05,VALID,917.34,VALID,0,VALID,97.5873,VALID,0,VALID,18.2016,VALID,110,VALID,0,
2014-10-25, 02:27:05,VALID,917.324,VALID,0,VALID,97.595,VALID,0,VALID,18.164,VALID,110,VALID,0,
2014-10-25, 02:28:05,VALID,917.292,VALID,0,VALID,97.5797,VALID,0,VALID,18.1236,VALID,110,VALID,0,
2014-10-25, 02:29:05,VALID,917.312,VALID,0,VALID,97.5873,VALID,0,VALID,18.1041,VALID,110,VALID,0,
2014-10-25, 02:30:05,VALID,917.299,VALID,0,VALID,97.5873,VALID,0.107441,VALID,18.1055,VALID,110,VALID,0,
2014-10-25, 02:31:05,VALID,917.29,VALID,0,VALID,97.5797,VALID,0,VALID,18.0457,VALID,110,VALID,0,
2014-10-25, 02:32:05,VALID,917.321,VALID,0,VALID,97.5797,VALID,0,VALID,18.1835,VALID,109,VALID,0,
2014-10-25, 02:33:05,VALID,917.308,VALID,0,VALID,97.595,VALID,0,VALID,18.3004,VALID,105,VALID,0,
2014-10-25, 02:34:05,VALID,917.297,VALID,0,VALID,97.6255,VALID,0,VALID,18.3394,VALID,105,VALID,0,
2014-10-25, 02:35:05,VALID,917.31,VALID,0,VALID,97.6331,VALID,0.107441,VALID,18.3979,VALID,105,VALID,0,
2014-10-25, 02:36:05,VALID,917.26,VALID,0,VALID,97.6331,VALID,0,VALID,18.4369,VALID,105,VALID,0,
2014-10-25, 02:37:05,VALID,917.248,VALID,0,VALID,97.6483,VALID,0,VALID,18.4954,VALID,105,VALID,0,
2014-10-25, 02:38:05,VALID,917.213,VALID,0,VALID,97.6636,VALID,0,VALID,18.5149,VALID,105,VALID,0,
2014-10-25, 02:39:05,VALID,917.189,VALID,0,VALID,97.6865,VALID,0,VALID,18.5149,VALID,105,VALID,0,
2014-10-25, 02:40:05,VALID,917.212,VALID,0,VALID,97.6636,VALID,0,VALID,18.4759,VALID,105,VALID,0,
2014-10-25, 02:41:05,VALID,917.21,VALID,0,VALID,97.656,VALID,0,VALID,18.5734,VALID,105,VALID,0,
2014-10-25, 02:42:05,VALID,917.234,VALID,0,VALID,97.6483,VALID,0,VALID,18.6124,VALID,105,VALID,0,
2014-10-25, 02:43:05,VALID,917.21,VALID,0,VALID,97.6865,VALID,0,VALID,18.6708,VALID,105,VALID,0,
2014-10-25, 02:44:05,VALID,917.209,VALID,0,VALID,97.6712,VALID,0,VALID,18.6903,VALID,105,VALID,0,
2014-10-25, 02:45:05,VALID,917.232,VALID,0,VALID,97.6636,VALID,0,VALID,18.6903,VALID,105,VALID,0,
2014-10-25, 02:46:05,VALID,917.19,VALID,0,VALID,97.6636,VALID,0,VALID,18.6513,VALID,105,VALID,0,
2014-10-25, 02:47:05,VALID,917.228,VALID,0,VALID,97.6788,VALID,0,VALID,18.5734,VALID,105,VALID,0,
2014-10-25, 02:48:05,VALID,917.218,VALID,0,VALID,97.6712,VALID,0,VALID,18.533,VALID,105,VALID,0,
2014-10-25, 02:49:05,VALID,917.225,VALID,0,VALID,97.6636,VALID,0,VALID,18.5734,VALID,105,VALID,0,
2014-10-25, 02:50:05,VALID,917.211,VALID,0,VALID,97.6712,VALID,0,VALID,18.5734,VALID,105,VALID,0,
2014-10-25, 02:51:05,VALID,917.229,VALID,0,VALID,97.6636,VALID,0,VALID,18.6319,VALID,105,VALID,0,
2014-10-25, 02:52:05,VALID,917.203,VALID,0,VALID,97.6636,VALID,0,VALID,18.6513,VALID,105,VALID,0,
2014-10-25, 02:53:05,VALID,917.168,VALID,0,VALID,97.6712,VALID,0,VALID,18.6903,VALID,105,VALID,0,
2014-10-25, 02:54:05,VALID,917.132,VALID,0,VALID,97.6636,VALID,0,VALID,18.7098,VALID,105,VALID,0,
2014-10-25, 02:55:05,VALID,917.119,VALID,0,VALID,97.6788,VALID,0,VALID,18.7293,VALID,105,VALID,0,
2014-10-25, 02:56:05,VALID,917.053,VALID,0,VALID,97.6788,VALID,0,VALID,18.7098,VALID,105,VALID,0,
2014-10-25, 02:57:05,VALID,917.052,VALID,0,VALID,97.6788,VALID,0,VALID,18.7098,VALID,105,VALID,0,
2014-10-25, 02:58:05,VALID,917.02,VALID,0,VALID,97.6712,VALID,0,VALID,18.7293,VALID,105,VALID,0,
2014-10-25, 02:59:05,VALID,917.048,VALID,0,VALID,97.6636,VALID,0,VALID,18.7488,VALID,105,VALID,0,
2014-10-25, 03:00:05,VALID,917.083,VALID,0,VALID,97.6712,VALID,0,VALID,18.6903,VALID,105,VALID,0,
2014-10-25, 03:01:05,VALID,917.071,VALID,0,VALID,97.6941,VALID,0,VALID,18.6319,VALID,110,VALID,0,
2014-10-25, 03:02:05,VALID,917.075,VALID,0,VALID,97.6712,VALID,0,VALID,18.5734,VALID,110,VALID,0,
2014-10-25, 03:03:04,VALID,917.072,VALID,0,VALID,97.6712,VALID,0,VALID,18.5929,VALID,110,VALID,0.0824219,
2014-10-25, 03:04:04,VALID,917.046,VALID,0,VALID,97.6865,VALID,0,VALID,18.5344,VALID,110,VALID,0,
2014-10-25, 03:05:04,VALID,917.016,VALID,0,VALID,97.6712,VALID,0,VALID,18.5553,VALID,110,VALID,0,
2014-10-25, 03:06:04,VALID,917.011,VALID,0,VALID,97.6788,VALID,0,VALID,18.5539,VALID,110,VALID,0,
2014-10-25, 03:07:04,VALID,917,VALID,0,VALID,97.6712,VALID,0,VALID,18.5734,VALID,109,VALID,0,
2014-10-25, 03:08:04,VALID,917.007,VALID,0,VALID,97.6712,VALID,0,VALID,18.5734,VALID,110,VALID,0,
2014-10-25, 03:09:04,VALID,916.999,VALID,0,VALID,97.6636,VALID,0,VALID,18.5734,VALID,110,VALID,0,
2014-10-25, 03:10:04,VALID,916.971,VALID,0,VALID,97.6636,VALID,0,VALID,18.5734,VALID,110,VALID,0,
2014-10-25, 03:11:04,VALID,916.968,VALID,0,VALID,97.7017,VALID,0,VALID,18.533,VALID,120,VALID,0.34375,
2014-10-25, 03:12:04,VALID,916.95,VALID,0,VALID,97.6941,VALID,0,VALID,18.5344,VALID,120,VALID,0.707031,
2014-10-25, 03:13:04,VALID,916.938,VALID,0,VALID,97.6712,VALID,0,VALID,18.533,VALID,136,VALID,0.494531,
2014-10-25, 03:14:04,VALID,916.92,VALID,0,VALID,97.7169,VALID,0,VALID,18.5149,VALID,161,VALID,0.307422,
2014-10-25, 03:15:04,VALID,916.896,VALID,0,VALID,97.6865,VALID,0,VALID,18.4759,VALID,159,VALID,0,
2014-10-25, 03:16:04,VALID,916.87,VALID,0,VALID,97.6941,VALID,0,VALID,18.4759,VALID,159,VALID,0,
2014-10-25, 03:17:04,VALID,916.904,VALID,0,VALID,97.6941,VALID,0,VALID,18.4564,VALID,159,VALID,0,
2014-10-25, 03:18:04,VALID,916.894,VALID,0,VALID,97.7017,VALID,0,VALID,18.4564,VALID,159,VALID,0,
2014-10-25, 03:19:04,VALID,916.848,VALID,0,VALID,97.6941,VALID,0,VALID,18.4564,VALID,159,VALID,0,
2014-10-25, 03:20:04,VALID,916.836,VALID,0,VALID,97.7093,VALID,0,VALID,18.4564,VALID,159,VALID,0,
2014-10-25, 03:21:04,VALID,916.825,VALID,0,VALID,97.7017,VALID,0,VALID,18.4355,VALID,158,VALID,0,
2014-10-25, 03:22:04,VALID,916.843,VALID,0,VALID,97.7017,VALID,0,VALID,18.4564,VALID,158,VALID,0,
2014-10-25, 03:23:04,VALID,916.841,VALID,0,VALID,97.7169,VALID,0,VALID,18.4564,VALID,158,VALID,0.577734,
2014-10-25, 03:24:04,VALID,916.836,VALID,0,VALID,97.7169,VALID,0,VALID,18.4369,VALID,158,VALID,0.224609,
2014-10-25, 03:25:04,VALID,916.863,VALID,0,VALID,97.7246,VALID,0,VALID,18.4369,VALID,159,VALID,0,
2014-10-25, 03:26:04,VALID,916.872,VALID,0,VALID,97.7093,VALID,0,VALID,18.4369,VALID,159,VALID,0,
2014-10-25, 03:27:04,VALID,916.883,VALID,0,VALID,97.7093,VALID,0,VALID,18.4174,VALID,159,VALID,0,
2014-10-25, 03:28:04,VALID,916.869,VALID,0,VALID,97.7322,VALID,0,VALID,18.4174,VALID,159,VALID,0,
2014-10-25, 03:29:04,VALID,916.896,VALID,0,VALID,97.7322,VALID,0,VALID,18.4174,VALID,157,VALID,0,
2014-10-25, 03:30:04,VALID,916.895,VALID,0,VALID,97.7169,VALID,0,VALID,18.4759,VALID,153,VALID,0.578906,
2014-10-25, 03:31:04,VALID,916.925,VALID,0,VALID,97.7322,VALID,0,VALID,18.5344,VALID,147,VALID,0.8375,
2014-10-25, 03:32:04,VALID,916.959,VALID,0,VALID,97.7551,VALID,0.107441,VALID,18.5344,VALID,143,VALID,0.355859,
2014-10-25, 03:33:04,VALID,916.942,VALID,0,VALID,97.7322,VALID,0,VALID,18.5344,VALID,144,VALID,0,
2014-10-25, 03:34:04,VALID,916.914,VALID,0,VALID,97.7246,VALID,0,VALID,18.5734,VALID,161,VALID,0.729297,
2014-10-25, 03:35:04,VALID,916.928,VALID,0,VALID,97.7474,VALID,0,VALID,18.6124,VALID,161,VALID,0.605078,
2014-10-25, 03:36:04,VALID,916.957,VALID,0,VALID,97.7398,VALID,0,VALID,18.6319,VALID,162,VALID,0.0121094,
2014-10-25, 03:37:04,VALID,916.951,VALID,0,VALID,97.7474,VALID,0,VALID,18.6304,VALID,162,VALID,0,
2014-10-25, 03:38:04,VALID,916.934,VALID,0,VALID,97.7246,VALID,0,VALID,18.6499,VALID,162,VALID,0,
2014-10-25, 03:39:04,VALID,916.981,VALID,0,VALID,97.7474,VALID,0,VALID,18.6499,VALID,163,VALID,0,
2014-10-25, 03:40:04,VALID,917.009,VALID,0,VALID,97.7474,VALID,0.107441,VALID,18.6694,VALID,166,VALID,0,
2014-10-25, 03:41:04,VALID,917.02,VALID,0,VALID,97.7398,VALID,0,VALID,18.6694,VALID,166,VALID,0,
2014-10-25, 03:42:04,VALID,917.042,VALID,0,VALID,97.7322,VALID,0,VALID,18.6889,VALID,166,VALID,0,
2014-10-25, 03:43:04,VALID,917.07,VALID,0,VALID,97.7398,VALID,0,VALID,18.6694,VALID,166,VALID,0,
2014-10-25, 03:44:04,VALID,917.055,VALID,0,VALID,97.7551,VALID,0,VALID,18.6903,VALID,166,VALID,0,
2014-10-25, 03:45:04,VALID,917.091,VALID,0,VALID,97.7627,VALID,0,VALID,18.6694,VALID,166,VALID,0,
2014-10-25, 03:46:04,VALID,917.093,VALID,0,VALID,97.7627,VALID,0,VALID,18.6903,VALID,166,VALID,0,
2014-10-25, 03:47:04,VALID,917.103,VALID,0,VALID,97.7398,VALID,0.107441,VALID,18.7293,VALID,166,VALID,0,
2014-10-25, 03:48:04,VALID,917.133,VALID,0,VALID,97.7627,VALID,0,VALID,18.7488,VALID,166,VALID,0,
2014-10-25, 03:49:04,VALID,917.115,VALID,0,VALID,97.7551,VALID,0,VALID,18.7279,VALID,166,VALID,0,
2014-10-25, 03:50:04,VALID,917.13,VALID,0,VALID,97.7551,VALID,0,VALID,18.7683,VALID,166,VALID,0,
2014-10-25, 03:51:04,VALID,917.133,VALID,0,VALID,97.7779,VALID,0,VALID,18.7474,VALID,166,VALID,0,
2014-10-25, 03:52:04,VALID,917.128,VALID,0,VALID,97.7551,VALID,0,VALID,18.7474,VALID,166,VALID,0,
2014-10-25, 03:53:04,VALID,917.146,VALID,0,VALID,97.7474,VALID,0,VALID,18.7864,VALID,166,VALID,0.0539063,
2014-10-25, 03:54:04,VALID,917.112,VALID,0,VALID,97.7551,VALID,0,VALID,18.8059,VALID,164,VALID,0,
2014-10-25, 03:55:04,VALID,917.117,VALID,0,VALID,97.7627,VALID,0,VALID,18.8449,VALID,144,VALID,0,
2014-10-25, 03:56:04,VALID,917.103,VALID,0,VALID,97.7398,VALID,0,VALID,18.8853,VALID,144,VALID,0,